This is the latest recevied weather packets stored in our database for station/object K4CRS-13. If no packets are shown the sender has not sent any weather packets the latest 1 day(s).
| Time | Temp. | Humidity | Pressure | Rain* | Wind** | Luminosity | Snow |
|---|---|---|---|---|---|---|---|
| 1778063160 | 20° C | 90% | 1045.4 hPa | 0 mm | 2.24 m/s, 171° | 0 W/m² | - |
| 1778062857 | 20° C | 89% | 1045.3 hPa | 0 mm | 1.34 m/s, 183° | 0 W/m² | - |
| 1778062554 | 20° C | 89% | 1045.2 hPa | 0 mm | 1.34 m/s, 188° | 0 W/m² | - |
| 1778062251 | 20° C | 89% | 1045.4 hPa | 0 mm | 0.89 m/s, 186° | 0 W/m² | - |
| 1778061949 | 20° C | 89% | 1045.2 hPa | 0 mm | 1.34 m/s, 189° | 0 W/m² | - |
| 1778061647 | 20° C | 89% | 1045.1 hPa | 0 mm | 1.34 m/s, 195° | 0 W/m² | - |
| 1778061346 | 20° C | 89% | 1044.8 hPa | 0 mm | 1.79 m/s, 186° | 0 W/m² | - |
| 1778061041 | 20° C | 89% | 1044.8 hPa | 0 mm | 1.34 m/s, 198° | 0 W/m² | - |
| 1778060739 | 20° C | 88% | 1045 hPa | 0 mm | 1.79 m/s, 181° | 0 W/m² | - |
| 1778060437 | 20° C | 88% | 1045 hPa | 0 mm | 0.89 m/s, 169° | 0 W/m² | - |
| 1778060135 | 20° C | 88% | 1044.8 hPa | 0 mm | 1.79 m/s, 185° | 0 W/m² | - |
| 1778059832 | 20° C | 88% | 1044.8 hPa | 0 mm | 1.34 m/s, 176° | 0 W/m² | - |
| 1778059530 | 20° C | 88% | 1044.9 hPa | 0 mm | 0.89 m/s, 194° | 0 W/m² | - |
| 1778059226 | 20.56° C | 88% | 1044.6 hPa | 0 mm | 0.45 m/s, 188° | 0 W/m² | - |
| 1778058925 | 20.56° C | 87% | 1044.3 hPa | 0 mm | 0.89 m/s, 163° | 0 W/m² | - |
| 1778058622 | 20.56° C | 87% | 1044.3 hPa | 0 mm | 1.79 m/s, 179° | 0 W/m² | - |
| 1778058320 | 20.56° C | 87% | 1044.3 hPa | 0 mm | 1.79 m/s, 177° | 0 W/m² | - |
| 1778058016 | 20.56° C | 87% | 1044.5 hPa | 0 mm | 0.89 m/s, 186° | 0 W/m² | - |
| 1778057713 | 20.56° C | 87% | 1044.3 hPa | 0 mm | 1.34 m/s, 190° | 0 W/m² | - |
| 1778057409 | 20.56° C | 87% | 1044.3 hPa | 0 mm | 2.24 m/s, 180° | 0 W/m² | - |
| 1778057106 | 20.56° C | 86% | 1044.6 hPa | 0 mm | 1.34 m/s, 193° | 0 W/m² | - |
| 1778056802 | 20.56° C | 86% | 1044.6 hPa | 0 mm | 1.79 m/s, 165° | 0 W/m² | - |
| 1778056499 | 20.56° C | 86% | 1044.7 hPa | 0 mm | 1.79 m/s, 189° | 0 W/m² | - |
| 1778056197 | 20.56° C | 86% | 1044.8 hPa | 0 mm | 1.79 m/s, 183° | 0 W/m² | - |
| 1778055894 | 20.56° C | 86% | 1045 hPa | 0 mm | 1.34 m/s, 174° | 0 W/m² | - |
* Rain latest hour (hover to see other rain measurements)
** Current wind speed in m/s (hover to see current wind gust speed)